Home   Weather   Salzwedel   Past weeks

Flag for Germany Past Weather in Salzwedel, Saxony-Anhalt, Germany — Yesterday and Last 2 Weeks

45 °F


Feels Like: 41 °F
Forecast: 41 / 52 °F
Wind: 6 mph from East

Location: Fassberg

Current Time: Oct 24, 2016 at 10:16:54 PM

Latest Report: Oct 24, 2016 at 9:20 PM

Visibility: 2 mi

Pressure: 30.04 "Hg

Humidity: 93%

Dew Point: 43 °F

Location of SalzwedelLocation

Past Weather in Salzwedel — Graph


Salzwedel Temperature Yesterday

Maximum temperature yesterday: 50 °F (at 1:20 PM)
Minimum temperature yesterday: 36 °F (at 10:20 PM)
Average temperature yesterday: 43 °F

High & Low Weather Summary for the Past Weeks

High63 °F (Oct 16, 2:20 PM)100% (Oct 9, 8:20 PM)30.27 "Hg (Oct 9, 8:20 PM)
Low34 °F (Oct 24, 2:20 AM)54% (Oct 10, 3:20 PM)29.77 "Hg (Oct 15, 5:20 AM)
Average47 °F89%30.05 "Hg
* Reported Oct 9 8:20 PM — Oct 24 8:20 PM, Salzwedel, Weather by CustomWeather, © 2016

Note: Actual official high and low records may vary slightly from our data, if they occured in-between our weather recording intervals... More about our weather records


Salzwedel Weather History for the Previous 24 Hours

Scroll right to see more
Time TempWeatherWind HumidityBarometerVisibility
8:20 PM
Mon, Oct 24
45 °FDrizzle. Fog.7 mph93%30.01 "Hg1 mi
7:20 PM45 °FDrizzle. Fog.8 mph87%30.01 "Hg2 mi
6:20 PM45 °FFog.7 mph87%30.04 "Hg2 mi
5:20 PM45 °FPartly sunny.8 mph87%30.01 "Hg4 mi
4:20 PM45 °FPartly sunny.8 mph87%30.01 "Hg4 mi
3:20 PM45 °FPartly sunny.10 mph87%30.01 "Hg4 mi
3:00 PM45 °FFog.10 mph87%30.01 "Hg3 mi
2:20 PM45 °FFog.10 mph93%30.01 "Hg2 mi
1:20 PM45 °FFog.10 mph93%30.01 "Hg1 mi
12:20 PM43 °FFog.8 mph100%30.04 "Hg1 mi
11:50 AM43 °FFog.8 mph100%30.04 "Hg1 mi
11:20 AM43 °FFog.9 mph93%30.04 "Hg1 mi
10:56 AM41 °FFog.7 mph100%30.04 "Hg1 mi
10:20 AM41 °FFog.6 mph93%30.04 "Hg1 mi
9:20 AM39 °FFog.7 mph100%30.01 "Hg0 mi
8:20 AM39 °FFog.6 mph100%30.01 "Hg0 mi
7:20 AM39 °FFog.5 mph93%30.01 "Hg0 mi
6:20 AM39 °FFog.7 mph93%30.01 "Hg0 mi
5:20 AM39 °FFog.6 mph93%30.01 "Hg1 mi
4:20 AM37 °FFog.6 mph93%29.98 "Hg2 mi
3:48 AM37 °FFog.6 mph100%29.98 "Hg2 mi
3:20 AM36 °FPassing clouds.6 mph100%29.98 "Hg1 mi
2:20 AM34 °FFog.7 mph100%30.01 "Hg1 mi
1:20 AM36 °FFog.6 mph93%29.98 "Hg1 mi
12:20 AM36 °FFog.5 mph100%29.98 "Hg1 mi
11:20 PM
Sun, Oct 23
36 °FFog.5 mph100%29.98 "Hg1 mi
10:20 PM36 °FFog.6 mph100%29.98 "Hg1 mi
Weather by CustomWeather, © 2016

See weather overviewHow to use our weather pages